Regional Weather Roundup
Issued by NWS

Home | Current Version | Previous Version | Text Only | Print | Product List | Glossary On
Versions: 1 2 3 4 5 6 7 8 9 10 11 12 13 14 15 16 17 18 19 20 21 22 23 24 25 26 27 28 29 30 31 32 33 34 35 36 37 38 39 40 41 42 43 44 45 46 47 48 49 50
000
ASUS43 KLMK 271810
RWRKY
KENTUCKY REGIONAL WEATHER ROUNDUP
NATIONAL WEATHER SERVICE LOUISVILLE KY
200 PM EDT WED JUL 27 2016

NOTE "FAIR" INDICATES FEW OR NO CLOUDS BELOW 12,000 FEET
WITH NO SIGNIFICANT WEATHER AND/OR OBSTRUCTIONS TO VISIBILITY.

KYZ001>023-026-027-061>063-070>075-271900-
WESTERN AND SOUTH CENTRAL KENTUCKY

CITY           SKY/WX    TMP DP  RH WIND       PRES   REMARKS
PADUCAH        PTSUNNY   91  75  59 CALM      29.97F HX 101
HENDERSON      PTSUNNY   91  75  59 CALM      29.96F HX 102
OWENSBORO      MOSUNNY   90  78  67 S6        29.99F HX 104
HOPKINSVILLE   MOSUNNY   89  76  65 VRB5      29.99F HX 101
BOWLING GREEN  CLOUDY    89  74  60 SE3       30.00F HX  98
GLASGOW        SUNNY     90  73  58 W7        30.00F HX  98
$$

KYZ024-025-028>034-038-045-046-053-271900-
NORTH CENTRAL KENTUCKY

CITY           SKY/WX    TMP DP  RH WIND       PRES   REMARKS
LOUISVILLE/SDF CLOUDY    90  74  59 W6        29.98F HX  99
LOUISVILLE/LOU LGT RAIN  88  74  63 NW6       29.99F HX  96
FORT KNOX      CLOUDY    84  75  73 W6        29.99F HX  92
$$

KYZ035>037-039>044-047>052-055>060-089>105-271900-
NORTHEAST KENTUCKY

CITY           SKY/WX    TMP DP  RH WIND       PRES   REMARKS
LEXINGTON      MOSUNNY   89  71  55 SW9       30.01F HX  95
COVINGTON      PTSUNNY   86  73  65 VRB6      30.01S HX  93
FRANKFORT      PTSUNNY   87  72  60 CALM      29.99F HX  93
$$

KYZ054-064>069-076>088-106>120-271900-
SOUTHEAST KENTUCKY

CITY           SKY/WX    TMP DP  RH WIND       PRES   REMARKS
JACKSON        PTSUNNY   89  74  60 VRB5      30.03F HX  98
LONDON         MOSUNNY   90  69  50 VRB7      30.02F HX  94
SOMERSET       MOSUNNY   86  70  58 CALM      30.03F HX  90
MIDDLESBORO    MOSUNNY   92  73  53 SW7       30.02F HX 101
MONTICELLO     CLEAR    N/A N/A N/A VRB6      30.03F
$$





USA.gov is the U.S. government's official web portal to all federal, state and local government web resources and services.